Погода в Орлеане

Франция     47°53′52″N   1°53′40″E
темп.,
°C
ветер,
м/с
пор.,
м/с
влажн.,
%
обл.,
%
осадки,
мм/ч
давл.,
гПа
погр.,
м
19 апреля, пн
пн1923:00+9ссв1168100 0.0 102319
02:00+8св1270100 0.0 102236
05:00+8с2271100 0.0 102264
08:00+8ссв2476100 0.0 1021160
11:00+11св2362100 0.0 1022484
14:00+14всв224923 0.0 10211489
17:00+14ссв2245100 0.0 10191724
20:00+12с2256100 0.0 101950
20 апреля, вт
вт2023:00+11с2253100 0.0 101930
02:00+9всв2261100 0.0 101953
05:00+9св1166100 0.0 101830
08:00+9всв2369100 0.0 101884
11:00+11всв236444 0.0 1018456
14:00+15св334680 0.1 10171869
17:00+14ссв235290 0.0 10161040
20:00+13с356161 0.0 1016186
21 апреля, ср
ср2123:00+9св357725 0.0 101892
02:00+7ссв24855 0.0 101859
05:00+6ссв23890 0.0 101837
08:00+7ссв24850 0.0 1018107
11:00+13св34620 0.0 1018738
14:00+17всв334942 0.1 10171847
17:00+16св2452100 0.0 1016510
20:00+14св4967100 0.1 1016359
22 апреля, чт
чт2223:00+12св41075100 0.1 1018401
02:00+9св49885 0.1 1018244
05:00+7св410943 0.0 1018266
08:00+7св410911 0.0 1019273
11:00+13всв58650 0.0 1019675
14:00+17всв675323 0.0 10191525
17:00+16всв565299 0.0 10191727
20:00+14всв59643 0.0 1020744
23 апреля, пт
пт2323:00+9всв513630 0.0 1022441
02:00+6всв413710 0.0 1022362
05:00+4всв412790 0.0 1022279
08:00+5всв512730 0.0 1022339
11:00+12в610510 0.0 1022652
14:00+16в79400 0.0 10201178
17:00+17в78420 0.0 10191399
20:00+14всв6116022 0.0 1018642